Weather History for KSSC - April, 2013

Change the Weather History Date:

Thursday, April 11, 2013

  Actual Average Record
Temperature  
Mean Temperature 70 °F -  
Max Temperature 84 °F 72 °F 89 °F (2001)
Min Temperature 56 °F 49 °F 33 °F (1997)
Cooling Degree Days 4    
Growing Degree Days 20 (Base 50)    
Moisture  
Dew Point 62 °F    
Average Humidity 85    
Maximum Humidity 100    
Minimum Humidity 46    
Precipitation  
Precipitation 0.00 in - - ()
Sea Level Pressure  
Sea Level Pressure 29.94 in    
Wind  
Wind Speed 5 mph (South)    
Max Wind Speed 17 mph    
Max Gust Speed 25 mph    
Visibility 6 miles    
Events Fog , Rain , Thunderstorm    
Averages and records for this station are not official NWS values.
T = Trace of Precipitation, MM = Missing Value Source: NWS Daily Summary

Daily Weather History Graph

Daily Weather History Graph

Search for Another Location

Airport or City:

Trip Planner

Search our weather history database for the weather conditions in past years. The results will help you decide how hot, cold, wet, or windy it might be!

Date:

Astronomy

Apr. 11, 2013 Rise Set
Actual Time 6:55 AM EDT 7:50 PM EDT
Civil Twilight 6:30 AM EDT 8:15 PM EDT
Nautical Twilight 6:00 AM EDT 8:46 PM EDT
Astronomical Twilight 5:29 AM EDT 9:17 PM EDT
Moon 7:30 AM EDT (4/11) 9:18 PM EDT (4/11)
Length of Visible Light 13h 45m
Length of Day
12h 54m
New Moon, 2% of the Moon is Illuminated
Apr 11
New Moon
Apr 18
First Quarter
Apr 25
Full
May 2
Last Quarter
May 9
New

Hourly Weather History & Observations

Time (EDT) Temp. Heat Index Dew Point Humidity Pressure Visibility Wind Dir Wind Speed Gust Speed Precip Events Conditions
12:58 AM 64.8 °F - 58.8 °F 81% 30.00 in 10.0 mi South 5.8 mph - N/A   Clear
1:58 AM 62.4 °F - 58.1 °F 86% 30.00 in 10.0 mi SSW 5.8 mph - N/A   Clear
2:23 AM 62.6 °F - 59.0 °F 88% 29.99 in 7.0 mi South 4.6 mph - N/A   Clear
2:28 AM 62.6 °F - 59.0 °F 88% 29.99 in 7.0 mi South 4.6 mph - N/A   Clear
2:33 AM 60.8 °F - 59.0 °F 94% 29.98 in 9.0 mi South 5.8 mph - N/A   Clear
2:58 AM 62.4 °F - 59.5 °F 90% 29.98 in 10.0 mi South 3.5 mph - N/A   Clear
3:58 AM 60.4 °F - 58.5 °F 93% 29.98 in 10.0 mi South 2.3 mph - N/A   Clear
4:23 AM 59.0 °F - 59.0 °F 100% 29.98 in 6.0 mi Calm Calm - N/A   Clear
4:28 AM 60.8 °F - 59.0 °F 94% 29.98 in 1.2 mi Calm Calm - N/A   Clear
4:33 AM 60.8 °F - 59.0 °F 94% 29.98 in 0.5 mi SE 1.2 mph - N/A Fog Fog
4:43 AM 59.0 °F - 57.2 °F 94% 29.98 in 1.0 mi ENE 2.3 mph - N/A   Clear
4:48 AM 59.0 °F - 57.2 °F 94% 29.98 in 0.8 mi NE 1.2 mph - N/A   Clear
4:53 AM 57.2 °F - 57.2 °F 100% 29.98 in 0.5 mi NE 1.2 mph - N/A Fog Fog
4:58 AM 57.7 °F - 56.5 °F 96% 29.98 in 0.5 mi ENE 1.2 mph - N/A Fog Fog
5:10 AM 57.2 °F - 55.4 °F 94% 29.97 in 0.5 mi Calm Calm - N/A Fog Fog
5:15 AM 57.2 °F - 55.4 °F 94% 29.97 in 0.5 mi Calm Calm - N/A Fog Fog
5:25 AM 57.2 °F - 57.2 °F 100% 29.97 in 0.2 mi Calm Calm - N/A Fog Fog
5:35 AM 57.2 °F - 57.2 °F 100% 29.97 in 0.2 mi ENE 1.2 mph - N/A Fog Fog
5:40 AM 57.2 °F - 57.2 °F 100% 29.97 in 0.5 mi ENE 2.3 mph - N/A Fog Fog
5:55 AM 57.2 °F - 55.4 °F 94% 29.98 in 0.2 mi ENE 1.2 mph - N/A Fog Fog
5:58 AM 56.7 °F - 56.1 °F 98% 29.98 in 0.2 mi ENE 2.3 mph - N/A Fog Fog
6:03 AM 57.2 °F - 55.4 °F 94% 29.98 in 0.2 mi ENE 2.3 mph - N/A Fog Fog
6:38 AM 59.0 °F - 59.0 °F 100% 29.99 in 0.5 mi Calm Calm - N/A Fog Fog
6:48 AM 59.0 °F - 59.0 °F 100% 29.99 in 0.2 mi Calm Calm - N/A Fog Fog
6:58 AM 58.8 °F - 58.6 °F 99% 29.99 in 0.2 mi Calm Calm - N/A Fog Fog
7:58 AM 60.4 °F - 60.4 °F 100% 30.01 in 0.2 mi Calm Calm - N/A Fog Fog
8:22 AM 60.8 °F - 60.8 °F 100% 30.01 in 0.5 mi Calm Calm - N/A Fog Fog
8:31 AM 62.6 °F - 62.6 °F 100% 30.01 in 2.0 mi SE 2.3 mph - N/A   Overcast
8:38 AM 62.6 °F - 62.6 °F 100% 30.00 in 5.0 mi South 2.3 mph - N/A   Mostly Cloudy
8:58 AM 62.6 °F - 62.6 °F 100% 30.00 in 7.0 mi South 4.6 mph - N/A   Overcast
9:03 AM 62.6 °F - 62.6 °F 100% 30.00 in 4.0 mi SSE 3.5 mph - N/A   Overcast
9:10 AM 64.4 °F - 64.4 °F 100% 30.00 in 7.0 mi South 3.5 mph - N/A   Overcast
9:18 AM 64.4 °F - 64.4 °F 100% 30.00 in 10.0 mi SSW 4.6 mph - N/A   Overcast
9:41 AM 64.4 °F - 64.4 °F 100% 30.00 in 4.0 mi SSW 6.9 mph - N/A   Light Drizzle
9:47 AM 66.2 °F - 66.2 °F 100% 30.01 in 2.5 mi South 5.8 mph - N/A   Light Drizzle
9:58 AM 65.7 °F - 65.7 °F 100% 30.01 in 5.0 mi South 4.6 mph - 0.00 in   Overcast
10:08 AM 66.2 °F - 66.2 °F 100% 30.01 in 10.0 mi SSW 8.1 mph - N/A   Overcast
10:18 AM 68.0 °F - 68.0 °F 100% 30.01 in 10.0 mi SSW 10.4 mph - N/A   Overcast
10:23 AM 68.0 °F - 68.0 °F 100% 30.01 in 10.0 mi SSW 11.5 mph - N/A   Overcast
10:34 AM 68.0 °F - 68.0 °F 100% 30.00 in 10.0 mi SSW 12.7 mph - N/A   Mostly Cloudy
10:49 AM 69.8 °F - 69.8 °F 100% 30.00 in 10.0 mi SSW 12.7 mph - N/A   Mostly Cloudy
10:58 AM 70.9 °F - 70.9 °F 100% 30.01 in 10.0 mi SSW 13.8 mph - N/A   Mostly Cloudy
11:08 AM 71.6 °F - 71.6 °F 100% 30.01 in 10.0 mi SSW 12.7 mph - N/A   Mostly Cloudy
11:13 AM 73.4 °F - 64.4 °F 73% 30.00 in 10.0 mi SSW 11.5 mph - N/A   Mostly Cloudy
11:58 AM 76.5 °F - 61.7 °F 60% 29.98 in 10.0 mi South 6.9 mph - N/A   Mostly Cloudy
12:58 PM 80.4 °F 81.0 °F 58.8 °F 48% 29.95 in 10.0 mi SSW 10.4 mph - N/A   Mostly Cloudy
1:58 PM 82.4 °F 82.6 °F 59.9 °F 46% 29.92 in 10.0 mi SSW 10.4 mph - N/A   Mostly Cloudy
2:58 PM 83.3 °F 83.5 °F 60.8 °F 46% 29.89 in 10.0 mi South 9.2 mph - N/A   Scattered Clouds
3:58 PM 83.1 °F 83.3 °F 60.6 °F 46% 29.85 in 10.0 mi SSW 11.5 mph - N/A   Scattered Clouds
4:58 PM 83.3 °F 83.7 °F 61.2 °F 47% 29.83 in 10.0 mi South 11.5 mph - N/A   Mostly Cloudy
5:09 PM 80.6 °F 81.8 °F 62.6 °F 54% 29.82 in 6.0 mi SSE 17.3 mph 23.0 mph N/A Rain Light Rain Showers
5:16 PM 80.6 °F 81.8 °F 62.6 °F 54% 29.82 in 10.0 mi SSE 17.3 mph 23.0 mph N/A   Mostly Cloudy
5:20 PM 78.8 °F - 62.6 °F 57% 29.83 in 10.0 mi SE 10.4 mph 21.9 mph N/A Rain Light Rain
5:34 PM 77.0 °F - 64.4 °F 65% 29.83 in 10.0 mi SSE 11.5 mph - N/A Rain , Thunderstorm Light Thunderstorms and Rain
5:49 PM 77.0 °F - 66.2 °F 69% 29.83 in 10.0 mi South 8.1 mph - N/A Thunderstorm Mostly Cloudy
5:58 PM 77.2 °F - 65.7 °F 67% 29.83 in 10.0 mi South 5.8 mph - 0.00 in Thunderstorm Mostly Cloudy
6:12 PM 78.8 °F - 64.4 °F 61% 29.82 in 10.0 mi SSE 15.0 mph - N/A Rain Light Rain
6:24 PM 77.0 °F - 64.4 °F 65% 29.83 in 10.0 mi South 13.8 mph 25.3 mph N/A   Mostly Cloudy
6:58 PM 75.6 °F - 64.6 °F 69% 29.83 in 10.0 mi South 12.7 mph - 0.00 in   Scattered Clouds
7:58 PM 74.1 °F - 63.5 °F 69% 29.82 in 10.0 mi SSE 9.2 mph 20.7 mph N/A   Partly Cloudy
8:58 PM 73.2 °F - 62.2 °F 68% 29.81 in 10.0 mi SSE 15.0 mph - N/A   Clear
9:58 PM 72.0 °F - 62.1 °F 71% 29.81 in 10.0 mi South 8.1 mph - N/A   Mostly Cloudy
10:08 PM 71.6 °F - 62.6 °F 73% 29.81 in 10.0 mi South 9.2 mph 18.4 mph N/A   Mostly Cloudy
10:58 PM 71.6 °F - 63.1 °F 75% 29.82 in 10.0 mi South 12.7 mph 20.7 mph N/A   Overcast
11:58 PM 72.1 °F - 63.5 °F 74% 29.81 in 10.0 mi South 12.7 mph 20.7 mph N/A   Overcast